When you browse on this site, cookies collect data to enhance your experience and personalize the content and advertising you see.
Visit our Privacy Policy to learn more. By continuing to use the site, you agree to this use of cookies and data.
  • In Spain
  • List of Countries
  • For 7 days
  • Water Temperature
  • Satellite Maps
  • Weather Map
  • Weather Widgets
  • user-avatar
    Login

    Hourly Weather Reptowo

    Today, 16 February, Saturday

    Time Temperature Precipitation Wind Pressure Humidity
    00:00 +2°C° 0 mm 2 mps 764 mmHg 90%
    01:00 +2°C° 0 mm 2 mps 764 mmHg 89%
    02:00 +2°C° 0 mm 2 mps 764 mmHg 87%
    03:00 +2°C° 0 mm 2 mps 764 mmHg 86%
    04:00 +1°C° 0 mm 2 mps 764 mmHg 84%
    05:00 +1°C° 0 mm 2 mps 763 mmHg 84%
    06:00 +1°C° 0 mm 2 mps 763 mmHg 83%
    07:00 +1°C° 0 mm 2 mps 763 mmHg 83%
    08:00 +2°C° 0 mm 3 mps 763 mmHg 76%
    09:00 +3°C° 0 mm 3 mps 762 mmHg 70%
    10:00 +4°C° 0 mm 4 mps 762 mmHg 63%
    11:00 +6°C° 0 mm 4 mps 762 mmHg 60%
    12:00 +7°C° 0 mm 4 mps 762 mmHg 57%
    13:00 +8°C° 0 mm 4 mps 761 mmHg 53%
    14:00 +8°C° 0 mm 4 mps 761 mmHg 55%
    15:00 +8°C° 0 mm 4 mps 761 mmHg 56%
    16:00 +8°C° 0 mm 4 mps 760 mmHg 57%
    17:00 +7°C° 0 mm 4 mps 760 mmHg 61%
    18:00 +6°C° 0 mm 4 mps 760 mmHg 64%
    19:00 +5°C° 0 mm 4 mps 759 mmHg 68%
    20:00 +5°C° 0 mm 4 mps 759 mmHg 70%
    21:00 +4°C° 0 mm 4 mps 759 mmHg 71%
    22:00 +4°C° 0 mm 4 mps 759 mmHg 73%
    23:00 +3°C° 0 mm 4 mps 759 mmHg 75%

    Tomorrow, 17 February, Sunday

    Time Temperature Precipitation Wind Pressure Humidity
    00:00 +3°C° 0 mm 3 mps 759 mmHg 78%
    01:00 +3°C° 0 mm 3 mps 759 mmHg 80%
    02:00 +2°C° 0 mm 3 mps 759 mmHg 82%
    03:00 +2°C° 0 mm 3 mps 759 mmHg 84%
    04:00 +1°C° 0 mm 3 mps 759 mmHg 86%
    05:00 +1°C° 0 mm 3 mps 759 mmHg 88%
    06:00 +1°C° 0 mm 3 mps 759 mmHg 89%
    07:00 +1°C° 0 mm 3 mps 759 mmHg 90%
    08:00 +2°C° 0 mm 3 mps 759 mmHg 89%
    09:00 +3°C° 0 mm 3 mps 760 mmHg 87%
    10:00 +3°C° 0 mm 3 mps 760 mmHg 85%
    11:00 +4°C° 0 mm 3 mps 760 mmHg 85%
    12:00 +5°C° 0 mm 3 mps 760 mmHg 84%
    13:00 +5°C° 0 mm 3 mps 760 mmHg 83%
    14:00 +6°C° 0 mm 2 mps 760 mmHg 84%
    15:00 +6°C° 0 mm 2 mps 760 mmHg 85%
    16:00 +6°C° 0 mm 2 mps 760 mmHg 86%
    17:00 +7°C° 0 mm 1 mps 760 mmHg 87%
    18:00 +7°C° 0 mm 1 mps 760 mmHg 89%
    19:00 +6°C° 0 mm 1 mps 760 mmHg 90%
    20:00 +5°C° 0 mm 0 mps 760 mmHg 90%
    21:00 +4°C° 0 mm 0 mps 760 mmHg 91%
    22:00 +4°C° 0 mm 0 mps 760 mmHg 91%
    23:00 +3°C° 0 mm 0 mps 760 mmHg 92%

    Day after tomorrow, 18 February, Monday

    Time Temperature Precipitation Wind Pressure Humidity
    00:00 +3°C° 0 mm 0 mps 760 mmHg 92%
    01:00 +3°C° 0 mm 0 mps 760 mmHg 93%
    02:00 +4°C° 0 mm 1 mps 760 mmHg 93%
    03:00 +3°C° 0 mm 1 mps 760 mmHg 94%
    04:00 +3°C° 0 mm 1 mps 759 mmHg 95%
    05:00 +3°C° 0 mm 1 mps 759 mmHg 95%
    06:00 +2°C° 0 mm 2 mps 759 mmHg 95%
    07:00 +2°C° 0 mm 2 mps 759 mmHg 96%
    08:00 +3°C° 0 mm 2 mps 759 mmHg 92%
    09:00 +3°C° 0 mm 3 mps 759 mmHg 88%
    10:00 +4°C° 0 mm 3 mps 760 mmHg 84%
    11:00 +5°C° 0 mm 3 mps 759 mmHg 78%
    12:00 +8°C° 0 mm 3 mps 759 mmHg 72%
    13:00 +9°C° 0 mm 3 mps 759 mmHg 66%
    14:00 +9°C° 0 mm 3 mps 758 mmHg 66%
    15:00 +8°C° 0 mm 3 mps 758 mmHg 66%
    16:00 +8°C° 0 mm 3 mps 758 mmHg 66%
    17:00 +7°C° 0 mm 3 mps 758 mmHg 70%
    18:00 +5°C° 0 mm 3 mps 758 mmHg 74%
    19:00 +4°C° 0 mm 3 mps 757 mmHg 78%
    20:00 +4°C° 0 mm 3 mps 757 mmHg 79%
    21:00 +3°C° 0 mm 3 mps 757 mmHg 80%
    22:00 +3°C° 0 mm 3 mps 757 mmHg 81%
    23:00 +2°C° 0 mm 3 mps 757 mmHg 81%

    19 February, Tuesday

    Time Temperature Precipitation Wind Pressure Humidity
    00:00 +2°C° 0 mm 3 mps 756 mmHg 82%
    01:00 +2°C° 0 mm 3 mps 756 mmHg 82%
    02:00 +1°C° 0 mm 3 mps 756 mmHg 83%
    03:00 +1°C° 0 mm 3 mps 755 mmHg 84%
    04:00 +1°C° 0 mm 3 mps 755 mmHg 84%
    05:00 +1°C° 0 mm 3 mps 755 mmHg 84%
    06:00 +1°C° 0 mm 3 mps 754 mmHg 84%
    07:00 +1°C° 0 mm 3 mps 754 mmHg 84%
    08:00 +2°C° 0 mm 3 mps 754 mmHg 80%
    09:00 +3°C° 0 mm 4 mps 754 mmHg 76%
    10:00 +4°C° 0 mm 4 mps 754 mmHg 72%
    11:00 +5°C° 0 mm 4 mps 754 mmHg 70%
    12:00 +6°C° 0 mm 5 mps 753 mmHg 67%
    13:00 +8°C° 0 mm 5 mps 753 mmHg 64%
    14:00 +8°C° 0 mm 5 mps 753 mmHg 65%
    15:00 +8°C° 0 mm 5 mps 752 mmHg 65%
    16:00 +8°C° 0 mm 4 mps 752 mmHg 66%
    17:00 +7°C° 0.4 mm 5 mps 752 mmHg 72%
    18:00 +7°C° 0.4 mm 5 mps 753 mmHg 78%
    19:00 +6°C° 0.4 mm 5 mps 753 mmHg 84%
    20:00 +5°C° 0 mm 5 mps 753 mmHg 85%
    21:00 +5°C° 0 mm 5 mps 753 mmHg 87%
    22:00 +3°C° 0 mm 5 mps 754 mmHg 88%
    23:00 +3°C° 0 mm 5 mps 754 mmHg 87%

    20 February, Wednesday

    Time Temperature Precipitation Wind Pressure Humidity
    00:00 +3°C° 0 mm 5 mps 754 mmHg 85%
    01:00 +3°C° 0 mm 5 mps 754 mmHg 84%
    02:00 +2°C° 0 mm 6 mps 754 mmHg 84%
    03:00 +2°C° 0 mm 6 mps 754 mmHg 83%
    04:00 +2°C° 0 mm 6 mps 754 mmHg 83%
    05:00 +2°C° 0 mm 6 mps 754 mmHg 83%
    06:00 +2°C° 0 mm 6 mps 754 mmHg 82%
    07:00 +2°C° 0 mm 6 mps 755 mmHg 81%
    08:00 +2°C° 0 mm 6 mps 755 mmHg 79%
    09:00 +3°C° 0 mm 6 mps 755 mmHg 77%
    10:00 +3°C° 0 mm 7 mps 756 mmHg 75%
    11:00 +3°C° 0 mm 6 mps 756 mmHg 74%
    12:00 +3°C° 0 mm 6 mps 756 mmHg 74%
    13:00 +3°C° 0 mm 6 mps 756 mmHg 74%
    14:00 +4°C° 0 mm 6 mps 756 mmHg 72%
    15:00 +5°C° 0 mm 5 mps 756 mmHg 70%
    16:00 +6°C° 0 mm 5 mps 756 mmHg 69%
    17:00 +5°C° 0 mm 4 mps 757 mmHg 72%
    18:00 +5°C° 0 mm 4 mps 757 mmHg 76%
    19:00 +5°C° 0 mm 3 mps 757 mmHg 80%
    20:00 +5°C° 0.1 mm 3 mps 757 mmHg 82%
    21:00 +5°C° 0.1 mm 4 mps 757 mmHg 83%
    22:00 +5°C° 0.1 mm 4 mps 757 mmHg 85%
    23:00 +5°C° 0.2 mm 4 mps 757 mmHg 86%

    21 February, Thursday

    Time Temperature Precipitation Wind Pressure Humidity
    00:00 +4°C° 0.2 mm 4 mps 757 mmHg 87%
    01:00 +4°C° 0.2 mm 4 mps 757 mmHg 88%
    02:00 +4°C° 0.3 mm 4 mps 756 mmHg 89%
    03:00 +4°C° 0.3 mm 4 mps 756 mmHg 90%
    04:00 +4°C° 0.3 mm 4 mps 756 mmHg 90%
    05:00 +3°C° 0.2 mm 5 mps 755 mmHg 91%
    06:00 +5°C° 0.2 mm 5 mps 755 mmHg 91%
    07:00 +5°C° 0.2 mm 5 mps 755 mmHg 91%
    08:00 +5°C° 0.1 mm 5 mps 755 mmHg 89%
    09:00 +6°C° 0.1 mm 5 mps 755 mmHg 88%
    10:00 +6°C° 0.1 mm 5 mps 755 mmHg 86%
    11:00 +7°C° 0.2 mm 6 mps 755 mmHg 85%
    12:00 +7°C° 0.2 mm 6 mps 755 mmHg 84%
    13:00 +7°C° 0.2 mm 6 mps 754 mmHg 83%
    14:00 +7°C° 1 mm 6 mps 754 mmHg 85%
    15:00 +6°C° 1 mm 5 mps 754 mmHg 87%
    16:00 +6°C° 1 mm 5 mps 754 mmHg 88%
    17:00 +6°C° 0.2 mm 5 mps 754 mmHg 88%
    18:00 +6°C° 0.2 mm 5 mps 754 mmHg 88%
    19:00 +6°C° 0.2 mm 4 mps 754 mmHg 88%
    20:00 +6°C° 0.1 mm 4 mps 754 mmHg 89%
    21:00 +5°C° 0.1 mm 4 mps 754 mmHg 89%
    22:00 +5°C° 0.1 mm 4 mps 755 mmHg 89%
    23:00 +4°C° 0.1 mm 4 mps 755 mmHg 88%
    Show more